SCP
0 0 0 0 0 0 0 0 0 0 0 0 0 0 0 0 0 0 0 0 0 0 0 0 0 0 0 0 0 0 0 0 0 0 0 0 0 0 0 0 0 0 0
0 0 0 0 0 0 0 0 0 0 0 0 0 0 0 0 0 0 0 0 0 0 0 0 0 0 0 0 0 0 0 0 0 0 0 0 0 0 0 0 0 0 0
0 0 0 0 0 0 0 0 0 0 0 0 0 0 0 0 0 0 0 0 0 0 0 0 0 0 0 0 0 0 0 0 0 0 0 0 0 0 0 0 0 0 0
0 0 0 0 0 0 0 0 0 0 0 0 0 0 0 0 0 0 0 0 0 0 0 0 0 0 0 0 0 0 0 0 0 0 0 0 0 0 0 0 0 0 0
0 0 0 0 0 0 0 0 0 0 0 0 0 0 0 0 0 0 0 0 0 0 0 0 0 0 0 0 0 0 0 0 0 0 0 0 0 0 0 0 0 0 0
0 0 0 0 0 0 0 0 0 0 0 0 0 0 0 0 0 0 0 0 0 0 0 0 0 0 0 0 0 0 0 0 0 0 0 0 0 0 0 0 0 0 0
0 0 0 0 0 0 0 0 0 0 0 0 0 0 0 0 0 0 0 0 0 0 0 0 0 0 0 0 0 0 0 0 0 0 0 0 0 0 0 0 0 0 0
0 0 0 0 0 0 0 0 0 0 0 0 0 0 0 0 0 0 0 0 0 0 0 0 0 0 0 0 0 0 0 0 0 0 0 0 0 0 0 0 0 0 0
0 0 0 0 0 0 0 0 0 0 0 0 0 0 0 0 0 0 0 0 0 0 0 0 0 0 0 0 0 0 0 0 0 0 0 0 0 0 0 0 0 0 0
0 0 0 0 0 0 0 0 0 0 0 0 0 0 0 0 0 0 0 0 0 0 0 0 0 0 0 0 0 0 0 0 0 0 0 0 0 0 0 0 0 0 0
0 0 0 0 0 0 0 0 0 0 0 0 0 0 0 0 0 0 0 0 0 0 0 0 0 0 0 0 0 0 0 0 0 0 0 0 0 0 0 0 0 0 0
0 0 0 0 0 0 0 0 0 0 0 0 0 0 0 0 0 0 0 0 0 0 0 0 0 0 0 0 0 0 0 0 0 0 0 0 0 0 0 0 0 0 0
0 0 0 0 0 0 0 0 0 0 0 0 0 0 0 0 0 0 0 0 0 0 0 0 0 0 0 0 0 0 0 0 0 0 0 0 0 0 0 0 0 0 0
0 0 0 0 0 0 0 0 0 0 0 0 0 0 0 0 0 0 0 0 0 0 0 0 0 0 0 0 0 0 0 0 0 0 0 0 0 0 0 0 0 0 0
1 0 0 0 0 0 0 0 0 0 0 0 0 0 0 0 0 0 0 0 0 0 0 0 0 0 0 0 0 0 0 0 0 0 0 0 0 0 0 0 0 0 0
1 1 0 0 0 0 0 0 0 0 0 0 0 0 0 0 0 0 0 0 0 0 0 0 0 0 0 0 0 0 0 0 0 0 0 0 0 0 0 0 0 0 0
1 1 0 0 0 0 0 0 0 0 0 0 0 0 0 0 0 0 0 0 0 0 0 0 0 0 0 0 0 0 0 0 0 0 0 0 0 0 0 0 0 0 0
1 1 1 0 0 0 0 0 0 0 0 0 0 0 0 0 0 0 0 0 0 0 0 0 0 0 0 0 0 0 0 0 0 0 0 0 0 0 0 0 0 0 0
1 1 1 1 1 1 1 1 1 1 1 1 1 0 0 0 0 0 0 0 0 0 0 0 0 0 0 0 0 0 0 0 0 0 0 0 0 0 0 0 0 0 0
1 1 1 1 1 1 1 1 1 1 1 1 1 1 0 0 0 0 0 0 0 0 0 0 0 0 0 0 0 0 0 0 0 0 0 0 0 0 0 0 0 0 0
1 1 1 1 1 1 1 1 1 1 1 1 1 1 1 0 0 0 0 0 0 0 0 0 0 0 0 0 0 0 0 0 0 0 0 0 0 0 0 0 0 0 0
1 1 1 1 1 1 1 1 1 1 1 1 1 1 1 0 0 0 0 0 0 0 0 0 0 0 0 0 0 0 0 0 0 0 0 0 0 0 0 0 0 0 0
1 1 1 1 1 1 1 1 1 1 1 1 1 1 1 0 0 0 0 0 0 0 0 0 0 0 0 0 0 0 0 0 0 0 0 0 0 0 0 0 0 0 0
1 1 1 1 1 1 1 1 1 1 1 1 1 1 1 0 0 0 0 0 0 0 0 0 0 0 0 0 0 0 0 0 0 0 0 0 0 0 0 0 0 0 0
1 1 1 1 1 1 1 1 1 1 1 1 1 1 1 0 0 0 0 0 0 0 0 0 0 0 0 0 0 0 0 0 0 0 0 0 0 0 0 0 0 0 0
1 1 1 1 1 1 1 1 1 1 1 0 0 0 0 0 0 0 0 0 0 0 0 0 0 0 0 0 0 0 0 0 0 0 0 0 0 0 0 0 0 0 0
Wind_Speed
13 16 15 13 13 13 14 15 15 15 15 14 14 13 13 13 12 12 12 12 12 12 12 13 13 13 13 13 14 14 14 14 14 15 15 15 15 15 14 14 13 15 16
17 18 16 14 14 14 14 14 14 14 14 14 13 13 13 12 12 12 12 11 12 12 12 12 13 13 13 14 14 14 14 14 14 14 15 15 15 14 12 11 12 13 15
18 19 17 13 14 14 14 14 14 14 14 14 13 13 12 12 12 12 12 12 12 12 12 13 13 13 13 13 13 13 13 13 12 11 11 12 14 13 13 14 16 15 15
18 18 16 16 14 14 14 14 13 13 13 13 13 12 12 12 11 11 12 12 12 12 12 13 13 13 13 13 13 13 13 12 9 7 7 11 12 13 13 14 14 14 14
17 16 17 16 15 15 14 13 13 13 13 12 12 12 11 11 11 11 12 12 12 12 12 13 13 13 13 13 12 12 12 10 6 4 10 10 11 13 13 13 14 13 13
16 16 18 16 15 15 14 13 13 13 13 12 12 11 11 11 11 11 11 11 12 12 12 12 12 12 12 12 12 12 11 8 7 9 9 10 11 12 12 13 13 13 12
16 16 18 16 15 15 14 13 13 12 12 12 12 11 11 11 11 11 11 11 12 12 12 12 11 11 11 11 11 11 8 4 5 8 8 9 12 11 12 12 12 12 11
16 16 17 16 15 14 14 13 13 12 12 11 11 11 10 11 11 11 11 11 11 11 11 11 10 10 10 10 10 10 6 4 7 8 8 10 11 10 11 11 11 11 11
15 15 16 16 15 14 13 13 12 12 12 11 11 11 11 11 11 10 10 11 11 10 10 10 9 9 9 9 10 8 5 4 3 6 8 9 10 10 10 10 10 10 10
13 14 14 14 14 14 13 13 12 12 11 11 11 10 11 11 10 10 10 10 10 10 9 9 9 8 8 9 9 8 6 6 5 7 6 9 10 9 9 10 10 10 10
13 12 13 14 13 12 12 13 12 12 11 11 11 11 11 9 10 10 10 10 9 9 9 8 8 8 8 9 8 8 8 3 5 4 6 12 9 9 9 8 8 8 9
15 14 12 12 12 11 9 10 9 9 10 9 8 10 7 5 5 7 12 9 9 9 9 8 7 8 7 7 8 9 4 3 4 5 8 10 8 8 8 8 7 8 8
15 14 13 12 11 11 8 8 6 5 6 7 8 8 5 6 5 6 6 8 8 9 8 9 8 5 4 3 3 3 2 3 2 4 9 9 7 7 7 7 7 7 7
15 14 13 12 11 9 8 7 6 6 6 6 7 8 6 4 4 5 4 5 6 4 4 5 4 4 2 3 2 2 3 2 2 3 8 9 7 7 7 7 7 7 7
14 14 13 12 11 9 7 6 6 6 6 7 6 7 6 5 5 5 3 3 4 4 5 4 3 4 3 4 3 3 2 2 2 2 6 9 7 7 7 8 8 7 7
15 14 12 12 11 10 8 6 5 6 5 6 6 7 7 5 5 5 5 4 4 4 4 4 4 4 4 3 3 3 3 3 3 2 4 8 9 8 8 8 8 8 7
14 14 13 13 12 11 9 9 7 6 7 6 6 7 7 6 6 5 5 5 4 4 4 4 4 4 4 4 4 3 3 2 3 3 3 4 8 10 9 8 8 8 8
13 14 14 12 13 12 10 9 7 7 7 6 6 7 8 7 7 6 5 5 5 5 5 4 5 5 4 3 3 3 2 3 3 4 4 4 4 6 10 10 9 8 8
13 13 13 13 13 12 11 9 8 7 7 6 7 7 8 8 8 7 5 4 6 5 5 5 5 4 4 3 3 3 3 3 4 4 4 5 5 4 5 11 10 9 9
13 13 13 13 13 12 9 8 7 8 8 7 7 7 8 8 8 7 6 6 7 5 5 4 3 3 3 4 4 2 3 3 4 4 5 5 5 6 6 6 8 10 11
13 13 13 13 12 10 9 9 9 9 8 8 8 9 10 9 9 8 6 7 7 6 6 6 5 6 5 3 3 3 4 5 4 4 5 4 5 5 5 5 5 5 7
13 13 13 13 13 13 10 8 7 7 7 8 7 8 10 10 9 9 9 7 8 6 7 7 6 5 4 4 4 3 3 4 5 5 4 5 6 5 6 7 6 5 5
12 12 11 12 12 12 11 8 6 6 6 6 8 8 9 11 11 10 10 8 7 8 7 7 7 8 5 5 4 4 3 2 2 4 5 5 5 5 6 5 7 7 7
12 11 11 11 12 12 12 10 11 9 8 9 7 7 9 10 11 11 10 10 9 8 7 8 8 6 6 5 5 4 4 3 3 2 5 6 6 6 6 5 6 7 7
10 11 11 11 11 11 12 12 11 10 8 6 7 8 8 9 10 11 11 10 9 8 8 8 6 8 6 6 5 5 5 4 6 4 3 3 5 5 6 7 5 5 6
9 9 9 10 10 11 11 11 11 11 10 9 9 8 8 7 8 11 11 10 10 9 8 8 8 9 7 6 5 5 5 5 6 5 5 5 4 4 5 5 6 6 6
Wind_Direction
149 136 138 141 137 133 133 133 132 132 131 129 127 125 122 119 115 113 112 111 109 107 107 108 108 106 104 102 102 100 100 101 102 104 104 104 106 106 109 116 119 105 106
143 136 141 141 139 135 133 132 131 131 131 131 130 127 125 122 119 116 114 113 112 111 108 108 108 105 104 103 103 103 102 102 104 108 112 108 104 104 104 99 89 103 110
142 138 146 142 139 136 134 133 132 132 132 132 131 129 127 124 120 119 117 115 113 112 110 109 107 107 105 105 105 105 104 104 108 120 133 116 109 105 102 99 101 110 110
143 144 147 140 141 139 136 135 134 134 134 133 132 130 128 125 123 121 118 115 113 112 111 111 111 110 107 106 106 106 106 107 116 155 124 107 109 105 106 106 108 111 111
142 142 137 147 145 143 141 139 138 137 135 134 132 132 130 127 124 121 119 118 116 114 113 113 114 112 110 109 109 108 109 114 145 140 97 101 103 109 110 111 112 112 112
145 147 140 152 148 147 146 144 142 140 138 136 135 134 132 128 125 123 121 120 118 116 115 115 115 114 114 113 112 112 116 142 181 104 107 109 108 113 112 113 113 112 113
150 146 143 154 151 151 149 147 145 143 140 138 136 135 132 130 129 127 124 122 119 118 117 117 118 117 117 117 117 117 123 188 116 105 108 103 104 115 116 115 114 113 114
152 148 141 153 154 154 153 151 149 147 144 141 139 137 134 130 128 127 127 125 123 121 121 121 121 119 118 120 121 121 136 226 122 113 105 102 108 122 121 120 120 119 116
154 148 150 157 158 157 156 155 153 151 147 143 141 140 136 131 129 128 127 127 126 126 127 126 125 123 122 123 125 126 135 284 127 116 115 108 119 126 126 126 126 124 122
159 157 157 162 159 163 161 159 157 154 150 146 145 144 139 135 134 136 142 129 132 132 132 130 126 125 127 130 133 137 157 230 134 127 116 114 130 133 132 132 132 132 129
166 164 167 162 163 169 163 153 163 160 155 155 155 151 163 163 150 159 127 131 137 138 136 133 130 131 140 141 142 156 190 195 126 113 103 114 141 143 140 139 138 138 136
173 173 171 169 166 172 163 157 172 174 164 180 159 165 173 149 147 133 120 139 143 144 144 138 139 164 193 156 155 187 196 157 142 131 111 130 150 154 150 148 146 143 144
177 178 172 172 170 176 166 168 174 172 164 175 163 169 158 156 157 149 148 153 159 167 166 153 180 187 169 128 158 170 164 156 143 126 120 143 161 166 159 160 159 156 154
181 182 177 172 175 180 176 173 177 176 171 172 164 178 166 172 167 155 162 159 167 169 164 174 176 161 156 153 166 149 171 190 143 111 122 149 169 175 170 169 173 173 170
183 183 180 176 176 179 181 188 185 183 177 171 169 177 178 175 176 162 163 167 177 160 172 187 180 165 181 181 188 174 186 156 145 150 129 157 175 185 183 182 185 187 183
184 185 180 180 180 183 185 194 190 189 182 179 179 174 187 187 173 173 177 180 181 184 181 188 181 185 202 184 197 189 205 181 151 191 159 159 179 190 194 193 192 194 192
186 183 182 182 184 189 194 198 197 194 185 188 179 177 189 195 179 192 186 189 185 184 175 196 193 201 203 197 198 201 203 210 171 193 193 171 174 184 195 199 200 201 201
184 183 184 186 185 191 199 203 203 200 190 189 185 183 191 198 192 203 201 195 182 193 191 189 203 206 203 211 200 212 198 195 202 200 193 195 199 179 181 192 202 204 207
185 184 185 190 188 192 197 200 205 200 197 195 191 191 188 197 199 207 211 193 196 203 202 210 185 215 206 216 209 203 213 203 203 207 202 204 195 206 184 168 190 203 212
188 188 189 191 191 189 194 198 203 202 200 201 200 196 191 197 203 210 209 198 206 201 204 216 183 208 229 221 237 194 222 214 216 202 215 204 202 206 206 181 186 197 206
187 188 191 193 190 188 191 194 197 198 199 201 204 197 197 202 203 211 216 196 210 205 207 204 203 198 215 209 222 221 215 217 221 214 221 220 210 211 212 200 215 205 189
189 190 192 193 192 196 195 196 198 196 200 201 205 199 200 201 205 208 216 209 207 205 208 210 211 221 207 196 221 226 222 201 210 217 210 214 220 208 209 206 205 210 234
192 194 195 196 195 200 196 190 191 191 200 202 205 205 207 206 209 216 210 215 211 213 205 210 206 213 215 206 220 240 245 228 190 187 212 216 213 215 221 208 210 210 219
194 193 197 194 195 197 193 194 194 196 201 207 206 204 205 211 214 213 213 214 217 218 208 211 207 214 219 217 204 234 270 327 278 215 199 194 202 217 229 229 217 207 214
193 192 193 193 196 195 196 195 199 205 209 207 209 208 210 210 216 216 215 214 214 220 214 219 207 219 216 225 217 210 221 226 245 261 244 215 202 208 211 221 228 222 214
188 188 188 190 195 197 198 202 206 210 208 207 208 209 210 209 213 215 215 212 214 218 212 213 213 214 226 231 236 227 220 226 229 236 245 236 228 219 212 218 225 222 221